Vohburg — V2OW7 — position and weather

sailwx.info

Track history (hours):
 
Tides and Currents Weather Stations Pressure Air Temp Water Temp Dewpoint Dewpoint Depression Visibility Wind Speed Wind Dir Waves Ship Positions

Vohburg

Last reported at 2014-Sep-02 04:34 UTC. Time now 2014-Sep-02 23:57 UTC.
Position N 59°59' E 026°45'.

Length 140 m; draft 6.4 m.

Type: Ship (hazmat cat A). MMSI: 305773000.

Date/timePositionNaut miles runAvg speedWind from/ knotsBaromVisibWave heightAir tempDewpointWater temp
2014-Sep-02 04:34N 59°59' E 026°45'71 6.3
2014-Sep-01 17:17N 59°44' E 024°27'1817.2
2014-Sep-01 16:15N 59°38' E 023°54'1217.5
2014-Sep-01 15:33N 59°35' E 023°31'31116.9
2014-Aug-31 21:06N 55°58' E 016°33'915.9
2014-Aug-31 20:33N 55°54' E 016°19'3915.9
2014-Aug-31 18:06N 55°35' E 015°19'815.3
2014-Aug-31 17:34N 55°31' E 015°06'1615.8
2014-Aug-31 16:34N 55°24' E 014°41'1716.9
2014-Aug-31 15:33N 55°11' E 014°22'1716.8
2014-Aug-31 14:34N 54°60' E 014°00'1717.0
2014-Aug-31 13:33N 54°54' E 013°32'1717.1
2014-Aug-31 12:32N 54°49' E 013°03'1716.7
2014-Aug-31 11:32N 54°42' E 012°37'1616.0
2014-Aug-31 10:33N 54°32' E 012°17'1515.0
2014-Aug-31 09:33N 54°23' E 011°56'169 3.7
2014-Aug-29 12:27N 57°08' E 010°46'1715.3
2014-Aug-29 11:22N 57°24' E 010°42'1316.4
2014-Aug-29 10:33N 57°37' E 010°45'1211.7
2014-Aug-29 09:33N 57°47' E 010°35'1616.2
2014-Aug-29 08:33N 57°43' E 010°05'19016.7
2014-Aug-28 21:12N 55°21' E 006°17'1217.9
2014-Aug-28 20:33N 55°11' E 006°06'1818.0
2014-Aug-28 19:33N 54°56' E 005°50'12417.0
2014-Aug-28 12:17N 53°03' E 004°24'1216.6
2014-Aug-28 11:33N 52°53' E 004°14'1616.1
2014-Aug-28 10:33N 52°39' E 004°01'1615.8
2014-Aug-28 09:33N 52°24' E 003°53'1616.1
2014-Aug-28 08:34N 52°08' E 003°55'1515.5
2014-Aug-28 07:34N 51°56' E 004°12'9 8.9
2014-Aug-28 06:33N 51°53' E 004°25'0 0.0
2014-Aug-28 04:33N 51°53' E 004°25'0 0.0
2014-Aug-28 01:12N 51°53' E 004°25'0 0.0
2014-Aug-28 00:33N 51°53' E 004°25'0 0.0
2014-Aug-27 23:27N 51°53' E 004°25'0 0.0
2014-Aug-27 20:28N 51°53' E 004°25'0 0.0
2014-Aug-27 10:31N 51°53' E 004°25'6 6.0
2014-Aug-27 09:33N 51°54' E 004°16'1312.9
2014-Aug-27 08:34N 52°00' E 003°58'1515.1
2014-Aug-27 07:33N 52°14' E 003°46'2016.8
2014-Aug-27 06:23N 52°33' E 003°52'4515.6
2014-Aug-27 03:32N 53°13' E 004°26'1917.4
2014-Aug-27 02:27N 53°29' E 004°40'1618.5
2014-Aug-27 01:34N 53°35' E 005°06'1818.3
2014-Aug-27 00:33N 53°41' E 005°36'7016.6
2014-Aug-26 20:20N 53°59' E 007°30'1316.2
2014-Aug-26 19:33N 54°01' E 007°52'1616.1
2014-Aug-26 18:32N 53°60' E 008°20'1717.6
2014-Aug-26 17:34N 53°51' E 008°45'1414.2
2014-Aug-26 16:33N 53°54' E 009°09'0 0.3
2014-Aug-26 15:34N 53°54' E 009°09'8 8.0
2014-Aug-26 14:33N 54°00' E 009°18'4 4.2
2014-Aug-26 13:33N 54°04' E 009°19'6 5.6
2014-Aug-26 12:33N 54°09' E 009°23'81 9.0
2014-Aug-26 03:33N 54°29' E 011°38'1716.7
2014-Aug-26 02:33N 54°26' E 012°06'1615.7
2014-Aug-26 01:33N 54°39' E 012°21'1716.8
2014-Aug-26 00:33N 54°48' E 012°46'2617.4
2014-Aug-25 23:04N 54°57' E 013°28'3216.1
2014-Aug-25 21:05N 55°13' E 014°16'916.8
2014-Aug-25 20:33N 55°20' E 014°26'1616.1
2014-Aug-25 19:33N 55°30' E 014°48'36916.7
2014-Aug-24 21:32N 59°37' E 023°18'1717.8
2014-Aug-24 20:33N 59°42' E 023°51'1817.5
2014-Aug-24 19:33N 59°47' E 024°25'5917.4
2014-Aug-24 16:11N 59°59' E 026°19'1117.3
2014-Aug-24 15:33N 60°01' E 026°40'  
Track history (hours):
 
Tides and Currents Weather Stations Pressure Air Temp Water Temp Dewpoint Dewpoint Depression Visibility Wind Speed Wind Dir Waves Ship Positions

Vohburg

Last reported at 2014-Sep-02 04:34 UTC. Time now 2014-Sep-02 23:57 UTC.
Position N 59°59' E 026°45'.

Length 140 m; draft 6.4 m.

Type: Ship (hazmat cat A). MMSI: 305773000.

Date/timePositionNaut miles runAvg speedWind from/ knotsBaromVisibWave heightAir tempDewpointWater temp
2014-Sep-02 04:34N 59°59' E 026°45'71 6.3
2014-Sep-01 17:17N 59°44' E 024°27'1817.2
2014-Sep-01 16:15N 59°38' E 023°54'1217.5
2014-Sep-01 15:33N 59°35' E 023°31'31116.9
2014-Aug-31 21:06N 55°58' E 016°33'915.9
2014-Aug-31 20:33N 55°54' E 016°19'3915.9
2014-Aug-31 18:06N 55°35' E 015°19'815.3
2014-Aug-31 17:34N 55°31' E 015°06'1615.8
2014-Aug-31 16:34N 55°24' E 014°41'1716.9
2014-Aug-31 15:33N 55°11' E 014°22'1716.8
2014-Aug-31 14:34N 54°60' E 014°00'1717.0
2014-Aug-31 13:33N 54°54' E 013°32'1717.1
2014-Aug-31 12:32N 54°49' E 013°03'1716.7
2014-Aug-31 11:32N 54°42' E 012°37'1616.0
2014-Aug-31 10:33N 54°32' E 012°17'1515.0
2014-Aug-31 09:33N 54°23' E 011°56'169 3.7
2014-Aug-29 12:27N 57°08' E 010°46'1715.3
2014-Aug-29 11:22N 57°24' E 010°42'1316.4
2014-Aug-29 10:33N 57°37' E 010°45'1211.7
2014-Aug-29 09:33N 57°47' E 010°35'1616.2
2014-Aug-29 08:33N 57°43' E 010°05'19016.7
2014-Aug-28 21:12N 55°21' E 006°17'1217.9
2014-Aug-28 20:33N 55°11' E 006°06'1818.0
2014-Aug-28 19:33N 54°56' E 005°50'12417.0
2014-Aug-28 12:17N 53°03' E 004°24'1216.6
2014-Aug-28 11:33N 52°53' E 004°14'1616.1
2014-Aug-28 10:33N 52°39' E 004°01'1615.8
2014-Aug-28 09:33N 52°24' E 003°53'1616.1
2014-Aug-28 08:34N 52°08' E 003°55'1515.5
2014-Aug-28 07:34N 51°56' E 004°12'9 8.9
2014-Aug-28 06:33N 51°53' E 004°25'0 0.0
2014-Aug-28 04:33N 51°53' E 004°25'0 0.0
2014-Aug-28 01:12N 51°53' E 004°25'0 0.0
2014-Aug-28 00:33N 51°53' E 004°25'0 0.0
2014-Aug-27 23:27N 51°53' E 004°25'0 0.0
2014-Aug-27 20:28N 51°53' E 004°25'0 0.0
2014-Aug-27 10:31N 51°53' E 004°25'6 6.0
2014-Aug-27 09:33N 51°54' E 004°16'1312.9
2014-Aug-27 08:34N 52°00' E 003°58'1515.1
2014-Aug-27 07:33N 52°14' E 003°46'2016.8
2014-Aug-27 06:23N 52°33' E 003°52'4515.6
2014-Aug-27 03:32N 53°13' E 004°26'1917.4
2014-Aug-27 02:27N 53°29' E 004°40'1618.5
2014-Aug-27 01:34N 53°35' E 005°06'1818.3
2014-Aug-27 00:33N 53°41' E 005°36'7016.6
2014-Aug-26 20:20N 53°59' E 007°30'1316.2
2014-Aug-26 19:33N 54°01' E 007°52'1616.1
2014-Aug-26 18:32N 53°60' E 008°20'1717.6
2014-Aug-26 17:34N 53°51' E 008°45'1414.2
2014-Aug-26 16:33N 53°54' E 009°09'0 0.3
2014-Aug-26 15:34N 53°54' E 009°09'8 8.0
2014-Aug-26 14:33N 54°00' E 009°18'4 4.2
2014-Aug-26 13:33N 54°04' E 009°19'6 5.6
2014-Aug-26 12:33N 54°09' E 009°23'81 9.0
2014-Aug-26 03:33N 54°29' E 011°38'1716.7
2014-Aug-26 02:33N 54°26' E 012°06'1615.7
2014-Aug-26 01:33N 54°39' E 012°21'1716.8
2014-Aug-26 00:33N 54°48' E 012°46'2617.4
2014-Aug-25 23:04N 54°57' E 013°28'3216.1
2014-Aug-25 21:05N 55°13' E 014°16'916.8
2014-Aug-25 20:33N 55°20' E 014°26'1616.1
2014-Aug-25 19:33N 55°30' E 014°48'36916.7
2014-Aug-24 21:32N 59°37' E 023°18'1717.8
2014-Aug-24 20:33N 59°42' E 023°51'1817.5
2014-Aug-24 19:33N 59°47' E 024°25'5917.4
2014-Aug-24 16:11N 59°59' E 026°19'1117.3
2014-Aug-24 15:33N 60°01' E 026°40'  

Dump ship's entire track history